User: anonymous   Login
Location: Fort Wayne
(41.1310°N, 85.1290°W)
Time: 19:30:49
(UTC-05:00)
Language:

SR - Orbit

View from above orbital plane
View from above orbital plane
View from above satellite
View from above satellite

Ground track
Ground track

The orbit data is extracted from the following two-line orbital elements,

1 00046U 60007B   15031.21363830  .00000607  00000-0  14621-3 0  8392
2 00046 066.6925 311.4639 0209486 156.5997 204.4819 14.48232982854529
Epoch (UTC): 31 January 2015 05:07:38
Eccentricity: 0.0209486
inclination: 66.6925°
perigee height: 582 km
apogee height: 880 km
right ascension of ascending node: 311.4639°
argument of perigee: 156.5997°
revolutions per day: 14.48232982
mean anomaly at epoch: 204.4819°
orbit number at epoch: 85452

The dashed part of the orbit path shows where the satellite is in the earth's shadow,  

DLR